Temperature
18 19 19 20 23 23 22 23 23 23 23 22 21 21 23 23 23 22 21 20 20 19 18 17 15 14 14 13 12 12 11 11 11 10 10 10 10 9 9 9 9 9 9 8 8 9 9 9 10
18 19 19 21 23 22 22 23 23 23 22 20 20 21 22 22 21 21 20 20 20 19 18 17 16 15 14 13 12 12 11 11 11 10 10 10 9 9 9 9 8 9 8 9 9 9 9 9 9
19 19 20 23 22 22 22 23 23 22 20 20 21 21 22 22 21 20 20 20 20 19 18 17 16 15 14 13 12 12 11 11 11 10 10 10 9 9 9 8 8 8 9 9 9 9 9 9 9
19 20 22 23 22 22 22 23 22 22 21 20 21 22 21 21 20 20 20 20 19 19 18 17 16 15 14 13 12 12 11 11 11 10 10 9 9 9 9 8 9 8 9 9 8 8 9 9 9
19 22 23 22 22 22 23 22 21 22 22 21 21 22 22 20 20 20 20 19 19 18 18 17 16 15 14 13 12 11 11 11 10 10 10 10 9 9 9 9 9 9 8 8 8 8 8 8 9
21 22 22 21 22 22 22 21 21 22 22 21 21 22 22 21 20 20 20 19 18 18 17 17 16 15 13 13 12 11 11 11 10 10 10 9 9 9 9 9 9 8 8 8 8 8 8 9 9
21 22 21 21 21 22 22 21 21 22 22 22 21 21 22 20 20 19 19 19 18 18 17 16 15 14 13 12 12 11 11 10 10 10 10 9 9 9 9 9 8 8 8 8 8 8 9 9 9
20 22 21 21 21 21 21 20 20 21 21 20 19 21 22 19 19 19 19 18 18 17 17 16 14 13 12 12 11 11 10 10 10 10 9 9 9 9 8 8 8 8 8 8 8 8 8 9 9
20 21 21 21 21 21 21 21 20 19 20 19 19 19 19 19 19 18 18 18 18 17 17 16 14 13 12 11 11 11 10 10 10 10 9 9 9 8 8 8 8 8 8 8 8 8 8 8 8
20 21 21 21 21 21 21 20 20 20 20 20 19 18 18 18 18 18 17 17 17 17 16 16 14 13 12 11 11 10 10 10 10 9 9 9 8 8 8 8 8 8 8 8 8 8 8 8 7
21 21 21 20 19 19 19 19 19 19 20 19 18 17 17 17 17 17 16 16 16 16 16 15 14 13 12 11 11 10 10 10 9 9 9 9 8 8 8 8 8 8 8 8 8 8 7 7 7
20 20 19 19 17 17 18 19 19 18 18 16 16 16 16 16 16 16 16 16 15 15 15 15 14 14 13 11 11 10 10 10 9 9 9 9 9 8 8 8 8 8 8 8 8 8 7 8 8
20 20 18 17 16 16 16 17 18 18 16 15 15 15 15 15 15 16 16 16 16 16 15 15 15 14 13 12 11 10 10 10 9 9 9 9 8 8 8 8 8 8 8 8 8 8 7 7 7
19 18 18 17 17 16 17 17 17 17 15 15 15 15 15 15 15 16 16 16 16 16 16 15 15 14 13 12 11 11 10 10 9 9 9 9 8 8 8 8 8 8 8 7 7 7 7 7 7
17 19 20 18 18 17 17 19 18 16 15 16 15 15 14 15 15 16 16 16 16 16 16 15 15 14 13 12 11 10 10 10 10 9 9 9 8 8 8 8 8 8 7 7 7 7 7 7 7
18 19 20 19 18 17 18 20 18 15 16 16 16 15 14 14 14 15 16 16 16 16 16 15 15 14 13 12 11 11 10 10 9 9 9 9 8 8 8 8 8 7 7 7 7 7 7 7 7
19 20 20 19 18 18 19 19 19 16 16 16 16 15 14 14 14 15 16 16 16 16 15 15 14 13 12 12 11 10 10 10 9 9 9 9 8 8 8 8 7 7 7 7 7 7 6 6 6
20 20 19 19 18 17 18 18 18 16 16 16 16 15 14 14 13 14 15 15 16 15 15 15 14 13 12 12 11 11 10 10 10 10 9 9 9 8 8 8 8 7 7 7 7 7 6 6 6
18 18 19 19 17 17 18 18 18 16 16 16 16 15 14 13 13 14 15 15 15 15 14 14 14 13 13 12 11 11 11 10 10 10 10 9 9 9 8 8 8 7 7 7 7 6 6 6 6
17 18 19 18 16 16 17 17 17 16 16 16 15 15 14 13 13 13 14 14 14 14 14 14 13 13 12 12 11 11 11 11 10 10 10 9 9 9 8 8 8 8 7 7 7 7 6 6 5
17 18 18 18 17 16 16 18 17 16 16 14 14 14 13 13 13 12 13 13 13 13 13 13 13 12 12 12 11 11 11 11 10 10 10 10 9 9 9 8 8 8 7 7 7 7 6 5 5
18 17 16 16 17 18 17 19 18 17 17 16 15 14 13 12 12 12 12 13 13 13 12 12 12 12 12 11 11 11 10 10 10 10 9 9 9 9 8 8 8 7 7 7 7 7 6 5 5
17 15 15 15 16 17 17 19 19 17 17 16 15 14 13 12 11 12 12 12 12 12 12 12 12 11 11 11 11 10 10 9 9 9 9 8 8 8 8 8 7 7 7 7 6 6 5 5 4
15 15 14 15 16 18 17 18 19 18 17 17 15 13 12 11 11 11 11 11 11 11 11 11 11 11 11 10 10 9 9 9 8 8 8 8 7 7 7 7 7 6 6 6 6 5 5 5 4
16 17 18 19 19 19 16 16 19 17 16 16 15 13 12 11 11 10 10 11 11 11 11 10 10 10 10 9 9 9 8 8 7 7 7 7 6 6 6 6 6 6 5 5 5 5 4 4 4
17 17 18 19 19 19 16 17 18 15 13 13 13 13 11 11 10 10 10 10 10 10 10 10 9 9 9 8 8 8 7 7 6 6 6 6 5 5 5 5 5 5 5 4 4 4 4 3 3
16 17 16 17 16 17 18 17 17 14 13 13 12 12 11 10 10 9 9 9 9 9 9 9 9 8 8 7 7 7 6 6 6 5 5 5 5 4 4 4 4 4 4 4 3 3 3 2 2
15 16 16 17 17 18 18 18 18 15 14 13 13 12 11 10 9 9 9 9 9 9 8 8 8 7 7 6 6 6 5 5 5 5 4 4 4 4 4 3 3 3 3 3 2 2 2 1 1
14 15 16 16 16 17 18 19 17 16 15 14 13 12 10 9 9 8 8 8 8 8 8 7 7 6 6 6 5 5 5 4 4 4 4 3 3 3 2 2 2 2 1 1 1 1 0 0 0
15 16 16 17 16 16 17 18 15 15 14 13 12 10 9 8 8 8 8 8 7 7 7 6 6 5 5 5 5 4 4 4 3 3 3 2 2 2 1 1 1 1 1 0 0 -0 -0 -1 -1
Wind_Speed
1 2 3 3 4 4 2 1 2 3 2 2 1 3 4 5 7 5 3 6 7 13 21 24 23 21 19 17 15 14 13 11 10 10 9 9 8 9 9 9 9 9 10 10 10 10 10 11 11
2 2 3 3 4 4 3 1 2 4 3 2 2 4 4 4 3 3 2 7 9 14 21 22 24 22 20 18 16 15 13 12 11 10 9 9 8 8 8 8 8 8 8 9 9 9 9 9 10
2 3 3 4 4 3 1 2 4 4 2 2 2 3 4 4 1 0 3 8 11 15 20 21 24 22 20 18 17 15 14 13 11 10 10 9 8 8 8 7 7 7 7 7 7 8 8 8 8
3 3 3 4 3 1 2 4 5 4 1 3 3 4 3 2 1 2 3 9 11 15 20 21 24 22 21 19 18 16 15 13 12 11 10 9 8 7 7 7 6 6 6 6 6 6 7 7 7
2 3 4 4 3 1 2 4 3 4 3 2 4 6 6 1 1 1 2 9 11 14 18 20 24 22 21 20 18 17 15 14 13 11 10 9 8 8 7 6 6 5 5 5 5 5 5 5 5
2 3 5 5 3 2 3 2 3 4 4 3 4 7 6 3 1 1 2 8 10 13 17 19 23 22 21 20 18 17 16 15 13 12 11 10 9 8 7 6 6 5 4 4 3 3 3 3 3
1 2 4 5 5 5 3 1 4 6 8 7 4 7 6 2 4 2 2 7 9 13 16 17 20 21 20 19 18 17 16 15 14 12 11 10 9 8 7 6 6 5 4 3 2 2 1 1 1
1 2 5 5 6 7 2 2 4 8 9 3 3 7 8 4 3 0 3 6 8 11 14 16 18 19 18 18 18 17 16 15 14 13 11 10 9 8 8 7 6 6 5 4 3 3 2 2 1
2 5 7 6 6 6 3 6 6 5 7 5 5 8 7 4 2 2 4 7 9 11 13 15 16 16 16 16 16 17 16 15 14 13 12 11 9 9 8 8 7 7 6 6 5 5 5 4 4
2 6 6 4 5 8 8 8 8 6 8 8 7 6 4 4 4 5 7 9 11 13 14 14 15 15 15 13 14 14 14 14 14 12 12 11 9 8 7 6 7 7 7 7 7 7 7 7 6
3 5 5 5 5 6 7 8 4 6 7 7 10 13 9 6 6 7 8 8 10 11 13 14 15 15 14 12 12 11 11 11 12 12 11 10 9 8 8 8 8 9 8 9 7 8 8 8 7
4 6 5 5 2 4 7 6 5 5 6 8 9 10 8 7 6 6 7 7 7 9 12 14 15 14 14 13 12 11 10 10 10 10 11 10 8 9 8 9 9 9 9 9 9 9 10 10 11
5 4 4 5 7 7 7 7 6 4 5 6 5 5 6 7 7 5 5 4 6 8 11 13 14 14 14 13 11 11 11 11 11 11 12 12 10 10 10 10 10 11 11 11 11 11 12 12 13
3 6 9 8 5 2 3 2 2 1 4 5 6 7 8 9 9 7 5 2 3 6 9 11 13 14 14 12 11 11 11 11 11 11 13 14 13 11 11 11 11 12 12 13 13 13 13 12 12
3 6 6 1 1 0 3 2 2 2 4 5 8 9 11 11 11 10 8 4 0 3 6 8 10 12 13 13 12 11 11 11 11 11 13 14 15 14 13 12 12 13 14 14 14 14 13 12 13
3 4 3 2 1 1 4 2 3 3 4 6 8 10 11 13 14 12 10 7 5 3 4 6 6 9 11 11 10 10 10 11 11 11 12 14 16 16 14 13 13 15 14 13 12 11 11 12 12
4 4 4 2 1 2 3 4 1 3 2 6 8 10 11 13 15 14 13 10 8 6 5 5 5 6 7 8 8 8 8 9 10 11 11 13 15 16 16 14 15 15 13 12 11 12 12 13 14
3 5 5 5 1 4 5 5 3 2 3 7 9 10 11 14 14 13 14 12 11 9 8 6 5 3 4 4 5 5 6 7 9 10 12 14 14 16 16 15 17 16 11 11 12 14 14 13 13
5 6 8 6 2 4 5 5 2 2 6 8 9 10 11 12 12 13 14 13 13 11 10 8 6 4 3 3 3 4 5 6 7 9 12 14 15 15 15 14 15 14 13 14 16 15 15 14 12
6 8 8 4 1 3 5 4 2 5 7 7 8 9 10 11 12 13 13 13 13 12 10 8 6 4 3 2 2 2 4 5 6 7 10 12 14 15 14 15 13 13 12 15 16 15 13 12 11
7 8 6 5 3 3 4 4 6 6 6 6 6 7 8 9 11 11 12 13 12 12 10 7 6 4 2 1 1 2 3 4 5 6 7 9 12 14 15 16 15 14 13 13 15 15 16 14 12
6 4 5 4 5 3 2 3 8 9 9 7 7 7 8 8 9 10 10 11 11 10 8 8 7 5 3 1 1 3 4 5 6 6 7 9 10 12 13 15 15 14 13 15 15 15 14 15 14
2 2 2 4 4 4 4 5 6 9 11 11 9 8 8 7 8 9 9 9 9 8 7 7 7 6 4 2 2 3 5 6 7 7 9 9 9 10 12 13 13 13 13 15 16 16 16 14 15
4 3 2 2 3 4 3 5 5 8 12 12 11 9 8 8 7 8 7 7 8 7 7 6 6 6 5 4 3 4 6 8 9 10 10 9 8 8 10 11 12 13 12 14 15 16 17 16 17
4 4 4 4 4 2 2 5 4 3 4 9 12 11 9 7 7 6 6 6 6 7 6 6 6 6 5 5 5 6 7 8 10 10 10 10 9 9 11 10 11 12 13 14 15 15 16 18 19
5 4 4 4 3 2 3 5 1 4 3 4 8 10 8 7 5 5 5 4 4 5 5 5 6 6 6 6 6 7 8 7 8 10 10 11 10 11 13 13 13 14 15 15 15 14 16 16 18
4 4 2 3 2 5 5 4 3 4 5 7 8 9 8 6 5 4 4 3 3 4 5 5 5 6 7 7 8 8 9 9 10 11 12 11 11 12 14 14 15 15 15 16 16 14 17 17 17
2 4 4 4 4 5 5 6 5 9 9 8 9 9 7 5 5 4 3 2 2 3 4 5 6 7 7 8 8 8 10 11 12 12 13 14 14 14 15 15 16 16 16 16 16 16 17 18 18
6 5 5 3 4 4 5 3 2 7 9 9 9 8 7 5 4 3 2 1 2 3 4 6 7 8 8 9 10 11 12 12 13 13 14 14 15 15 16 16 17 17 17 17 17 18 19 19 19
5 6 8 6 5 5 5 5 5 5 5 6 8 7 5 5 3 2 1 1 3 4 6 7 8 9 10 10 12 13 13 13 14 15 15 16 16 16 17 17 18 18 18 18 19 19 19 20 20
Wind_Direction
196 214 222 221 204 212 195 103 1 359 357 8 308 266 308 333 344 346 48 160 160 164 169 173 174 172 171 170 168 164 160 157 151 144 138 131 124 118 110 102 95 88 84 80 77 74 74 72 71
209 217 218 219 220 203 161 89 354 358 353 320 233 241 267 295 293 314 104 160 169 168 171 175 173 174 174 173 172 168 165 163 159 154 149 142 135 127 119 109 100 93 87 83 79 76 75 75 74
195 244 222 199 217 217 149 26 350 344 309 251 241 248 288 317 278 300 65 159 170 171 175 174 173 176 176 176 175 173 171 169 166 162 157 152 145 134 125 116 108 101 93 87 82 79 76 77 75
215 206 213 213 193 179 328 350 342 322 267 228 276 277 260 273 336 45 91 165 173 174 177 174 176 178 179 179 178 176 175 174 171 169 165 161 154 144 135 127 119 111 104 95 87 81 78 77 76
229 221 201 208 215 256 315 334 322 312 314 276 276 293 294 139 96 47 145 174 179 175 178 176 179 180 181 182 180 179 178 179 177 177 174 171 166 158 149 143 136 128 119 109 96 85 80 77 77
199 226 224 229 244 290 302 302 290 301 309 297 273 289 294 110 86 31 173 183 184 178 179 177 181 184 184 185 183 182 183 183 182 184 182 180 176 170 165 161 157 151 141 128 115 100 85 76 74
266 243 249 260 275 287 311 313 293 312 303 301 281 283 286 127 44 13 181 183 184 182 182 180 183 187 188 188 187 186 187 188 187 189 190 188 186 184 180 177 177 174 171 163 153 141 124 92 73
341 255 249 263 277 290 304 279 289 297 303 317 257 276 295 19 17 27 170 181 185 187 188 186 187 189 190 191 191 189 190 191 193 193 193 192 195 196 191 193 193 195 197 200 205 210 218 226 244
253 256 261 272 280 292 298 294 300 278 278 270 254 281 324 350 321 204 188 189 191 194 195 193 192 190 192 193 190 191 192 194 196 197 192 193 205 206 203 206 201 213 218 223 228 232 238 241 235
238 261 271 276 277 295 299 294 304 282 280 285 283 289 309 300 272 241 226 210 202 198 197 197 197 193 193 192 192 196 198 198 202 204 199 204 209 212 215 189 208 226 234 238 241 243 243 244 242
246 267 280 269 273 285 291 295 288 285 297 321 318 319 321 303 282 264 252 236 218 205 198 200 200 198 196 194 196 197 198 201 205 208 203 201 206 210 218 220 216 225 231 240 236 242 244 247 251
261 267 270 278 267 275 285 292 286 273 304 334 320 316 320 319 310 290 274 256 227 210 202 201 200 201 202 200 200 201 199 201 203 204 203 202 208 219 223 229 233 235 236 241 245 248 248 251 252
257 273 268 269 278 277 275 269 278 288 334 341 342 350 355 352 347 336 306 270 230 212 203 202 202 203 204 207 208 209 210 210 209 207 210 214 220 227 230 235 237 241 245 245 247 250 253 253 254
284 278 286 290 280 238 256 270 230 352 5 9 29 34 27 21 12 9 3 322 230 210 203 199 202 205 205 209 213 215 219 219 222 219 221 223 230 235 236 241 242 245 246 249 251 254 257 257 255
274 286 283 205 288 240 273 257 168 35 2 36 52 51 45 37 31 26 18 14 15 190 192 194 200 205 208 214 219 223 225 226 228 229 231 230 234 239 240 246 248 248 249 250 252 255 257 258 258
251 263 254 143 7 335 278 265 104 41 21 57 62 59 55 47 41 36 34 39 58 105 154 175 187 202 209 215 221 226 231 234 235 236 238 237 239 242 246 248 251 253 252 250 250 253 254 255 256
235 264 285 285 92 325 290 273 61 14 51 87 79 69 62 54 44 40 42 49 61 78 104 137 169 191 204 214 222 231 237 241 244 243 243 243 244 244 246 250 255 257 253 250 251 254 254 259 260
268 280 282 289 330 307 282 273 307 11 123 110 95 81 69 59 48 45 49 56 64 72 83 99 127 159 180 198 217 231 242 247 248 248 248 249 248 247 247 252 256 258 253 251 251 253 255 257 264
270 269 281 288 327 297 280 283 289 130 139 122 105 91 79 71 64 58 57 60 66 69 74 82 96 116 146 168 202 228 243 249 250 251 255 255 254 253 250 253 258 256 252 252 255 257 258 257 259
238 263 275 274 217 287 291 278 157 147 144 127 113 100 91 85 73 63 61 61 62 64 66 72 80 97 129 170 209 246 268 272 271 265 263 260 258 256 254 254 256 256 255 255 256 256 256 257 248
239 252 272 287 303 227 278 190 160 151 145 133 120 108 99 89 82 73 66 63 62 59 58 62 68 77 91 155 227 261 269 274 271 273 271 268 264 260 256 256 258 258 255 256 255 253 249 252 250
258 242 248 264 286 256 268 219 176 172 171 164 147 129 113 102 92 82 74 66 60 58 59 62 65 68 70 96 270 281 287 293 299 298 289 285 274 266 262 261 260 261 258 257 257 253 251 249 253
242 98 210 254 258 259 222 238 178 176 188 183 166 147 130 116 102 90 80 75 67 62 60 60 62 60 55 40 338 301 297 300 302 301 295 294 286 275 268 265 264 262 260 259 258 257 253 247 247
141 138 137 190 226 238 201 230 200 186 200 186 171 157 145 130 115 101 94 88 76 66 59 54 53 47 36 18 347 319 311 308 307 306 304 301 296 288 279 272 267 265 263 261 260 258 256 252 250
195 242 257 231 221 226 142 240 239 150 185 188 175 163 152 141 131 117 106 91 76 61 51 45 39 31 18 3 344 327 315 308 304 306 305 302 298 295 292 286 278 273 268 265 263 261 258 255 253
199 240 269 284 280 282 201 238 177 110 133 164 167 160 153 150 140 126 110 95 76 57 42 33 24 12 0 348 336 325 318 309 305 303 301 297 295 294 295 290 283 279 276 271 266 264 261 258 256
180 205 303 279 284 272 243 243 231 152 155 157 160 161 161 158 151 137 120 99 72 47 28 14 3 355 347 337 327 321 318 311 307 303 299 295 293 294 293 291 287 283 279 275 272 267 265 262 260
299 156 170 220 259 264 257 243 218 182 178 169 170 172 168 162 157 146 129 96 56 27 6 355 347 338 330 326 322 315 312 310 306 302 299 297 296 295 293 292 290 287 284 280 275 272 269 268 265
165 181 206 217 258 266 274 256 143 178 175 179 179 176 170 166 163 157 136 80 22 356 346 341 335 328 325 322 319 314 313 310 306 302 300 299 297 296 294 292 291 288 286 284 280 275 274 272 271
225 214 198 225 229 232 270 272 114 164 167 181 177 171 166 160 154 151 130 8 343 339 337 333 329 324 322 318 314 311 309 307 305 303 303 301 298 296 294 292 290 288 286 284 282 281 278 276 274
Height
1550 1551 1553 1555 1554 1553 1554 1553 1551 1552 1552 1554 1555 1554 1552 1552 1553 1556 1554 1551 1550 1550 1551 1552 1553 1555 1556 1558 1559 1560 1561 1562 1562 1563 1563 1563 1563 1563 1563 1563 1562 1562 1561 1561 1560 1559 1559 1558 1558
1551 1552 1555 1555 1551 1555 1555 1552 1552 1552 1554 1555 1555 1554 1553 1551 1553 1553 1551 1550 1550 1550 1551 1551 1552 1554 1556 1557 1559 1560 1561 1562 1562 1563 1563 1564 1564 1564 1564 1563 1563 1562 1562 1561 1561 1560 1559 1559 1558
1552 1553 1555 1551 1551 1553 1554 1552 1552 1553 1554 1554 1553 1553 1552 1551 1552 1551 1550 1549 1549 1549 1550 1551 1552 1554 1555 1557 1559 1560 1561 1562 1563 1563 1564 1564 1564 1564 1564 1564 1563 1563 1562 1562 1561 1561 1560 1560 1559
1553 1555 1554 1550 1553 1553 1552 1551 1553 1553 1553 1554 1553 1551 1551 1551 1550 1550 1549 1548 1549 1549 1550 1550 1551 1553 1555 1556 1558 1560 1561 1562 1563 1563 1564 1564 1565 1565 1564 1564 1564 1563 1563 1562 1562 1561 1561 1560 1560
1553 1553 1551 1552 1553 1552 1552 1553 1554 1552 1551 1552 1552 1549 1549 1549 1548 1548 1547 1547 1548 1548 1549 1550 1551 1552 1554 1556 1558 1559 1560 1562 1563 1563 1564 1564 1565 1565 1565 1564 1564 1564 1563 1563 1562 1562 1561 1561 1560
1555 1551 1552 1554 1552 1552 1552 1554 1553 1551 1551 1551 1551 1549 1547 1547 1546 1546 1546 1546 1546 1547 1548 1549 1550 1552 1554 1555 1557 1559 1560 1561 1562 1563 1564 1565 1565 1565 1565 1564 1564 1564 1564 1563 1563 1562 1562 1561 1561
1555 1551 1552 1553 1553 1551 1552 1553 1552 1550 1549 1549 1549 1547 1545 1546 1545 1544 1544 1544 1544 1545 1546 1548 1549 1551 1553 1555 1556 1558 1559 1561 1562 1563 1564 1564 1565 1565 1565 1565 1564 1564 1564 1563 1563 1562 1562 1561 1561
1554 1553 1553 1553 1553 1552 1552 1553 1552 1551 1549 1549 1548 1546 1544 1544 1543 1542 1541 1541 1542 1543 1544 1546 1548 1550 1552 1554 1555 1557 1559 1560 1562 1562 1563 1564 1564 1565 1565 1564 1564 1564 1563 1563 1563 1562 1562 1561 1560
1554 1554 1553 1552 1552 1550 1551 1551 1551 1550 1548 1547 1546 1545 1544 1542 1540 1539 1538 1538 1539 1540 1542 1544 1547 1549 1551 1553 1554 1556 1558 1559 1561 1562 1562 1563 1564 1565 1564 1564 1564 1563 1563 1563 1562 1562 1561 1560 1560
1554 1553 1551 1551 1551 1550 1550 1550 1549 1548 1545 1544 1544 1543 1540 1538 1536 1535 1535 1535 1536 1538 1539 1541 1544 1547 1549 1551 1553 1555 1557 1558 1559 1561 1561 1562 1563 1564 1564 1563 1563 1562 1562 1562 1561 1561 1560 1559 1559
1552 1551 1550 1551 1551 1551 1550 1549 1548 1546 1543 1543 1542 1540 1538 1535 1533 1532 1532 1532 1533 1535 1537 1539 1542 1544 1547 1549 1551 1553 1555 1556 1558 1559 1560 1560 1561 1561 1561 1562 1561 1561 1561 1560 1560 1559 1559 1558 1557
1552 1550 1551 1550 1550 1550 1549 1548 1546 1546 1545 1543 1541 1538 1535 1533 1531 1529 1529 1529 1530 1531 1533 1536 1539 1541 1544 1547 1549 1551 1552 1554 1555 1556 1557 1558 1559 1559 1560 1560 1560 1559 1559 1558 1558 1557 1556 1555 1554
1551 1550 1550 1549 1549 1548 1547 1546 1546 1544 1544 1541 1539 1536 1534 1532 1529 1527 1526 1526 1526 1528 1530 1533 1536 1539 1541 1544 1546 1548 1550 1551 1553 1554 1555 1556 1556 1557 1557 1557 1557 1556 1556 1555 1555 1554 1553 1552 1551
1551 1550 1548 1547 1547 1546 1546 1545 1545 1543 1543 1541 1538 1535 1533 1530 1528 1526 1524 1524 1524 1526 1528 1531 1533 1536 1539 1541 1543 1546 1547 1549 1550 1551 1552 1553 1553 1554 1554 1554 1553 1553 1552 1552 1551 1550 1549 1548 1546
1551 1548 1544 1545 1545 1545 1545 1541 1542 1543 1542 1540 1538 1536 1533 1531 1528 1525 1524 1523 1523 1525 1527 1529 1531 1534 1536 1539 1541 1543 1544 1546 1547 1547 1548 1549 1550 1550 1550 1549 1549 1549 1548 1547 1546 1545 1544 1542 1541
1548 1545 1542 1542 1544 1544 1545 1539 1541 1542 1542 1540 1539 1537 1535 1532 1530 1527 1525 1524 1524 1525 1526 1528 1530 1532 1534 1536 1538 1540 1541 1542 1543 1544 1544 1545 1545 1546 1545 1545 1544 1544 1543 1542 1540 1539 1538 1536 1534
1544 1542 1541 1541 1543 1543 1541 1538 1540 1541 1541 1540 1539 1538 1536 1534 1532 1529 1527 1526 1526 1526 1527 1528 1529 1531 1533 1534 1536 1537 1538 1539 1539 1540 1540 1540 1540 1540 1540 1539 1538 1538 1536 1535 1534 1533 1531 1529 1528
1543 1542 1542 1540 1541 1542 1540 1537 1538 1540 1540 1539 1540 1539 1538 1536 1534 1532 1530 1529 1528 1528 1528 1529 1529 1530 1532 1533 1534 1535 1535 1536 1536 1536 1536 1535 1535 1535 1534 1533 1532 1532 1530 1528 1527 1525 1524 1522 1520
1544 1544 1542 1540 1542 1542 1538 1537 1537 1539 1540 1540 1540 1540 1539 1538 1537 1535 1533 1532 1531 1531 1530 1531 1531 1531 1532 1532 1533 1533 1534 1534 1533 1533 1532 1531 1530 1529 1528 1526 1525 1524 1522 1521 1520 1518 1516 1514 1513
1545 1544 1539 1539 1543 1542 1538 1536 1536 1538 1539 1540 1541 1541 1541 1540 1539 1537 1536 1535 1534 1533 1533 1533 1533 1533 1533 1533 1533 1533 1533 1532 1531 1530 1529 1527 1526 1524 1522 1521 1519 1518 1515 1513 1512 1511 1508 1506 1506
1543 1541 1538 1540 1540 1541 1539 1533 1535 1538 1540 1541 1541 1542 1542 1541 1540 1539 1538 1537 1536 1536 1535 1535 1534 1534 1534 1533 1533 1532 1531 1530 1528 1527 1525 1523 1521 1519 1517 1515 1513 1511 1509 1506 1505 1503 1500 1498 1497
1539 1539 1541 1543 1539 1532 1537 1529 1530 1533 1537 1539 1540 1541 1542 1542 1541 1540 1539 1538 1538 1537 1537 1536 1535 1535 1534 1533 1532 1531 1529 1528 1526 1524 1521 1519 1517 1514 1512 1510 1507 1505 1502 1499 1498 1496 1493 1490 1488
1538 1542 1542 1542 1539 1535 1535 1529 1523 1531 1532 1535 1538 1540 1541 1541 1541 1540 1540 1539 1539 1538 1538 1537 1536 1535 1534 1532 1531 1529 1527 1525 1523 1520 1517 1514 1512 1509 1506 1503 1501 1498 1495 1492 1490 1488 1485 1482 1479
1542 1542 1543 1542 1537 1532 1530 1529 1521 1524 1525 1530 1535 1539 1540 1541 1541 1540 1540 1540 1539 1539 1538 1537 1536 1534 1532 1531 1529 1527 1524 1521 1518 1516 1512 1509 1506 1503 1500 1497 1494 1491 1488 1485 1482 1479 1477 1474 1471
1540 1537 1533 1530 1529 1524 1534 1532 1520 1522 1525 1528 1532 1536 1538 1539 1540 1540 1539 1539 1538 1538 1537 1536 1534 1532 1530 1528 1526 1523 1520 1517 1514 1511 1507 1504 1500 1497 1494 1490 1487 1483 1480 1477 1474 1470 1467 1465 1462
1535 1534 1533 1532 1526 1523 1533 1527 1518 1525 1528 1530 1532 1534 1537 1538 1538 1538 1538 1538 1537 1536 1535 1534 1532 1530 1528 1525 1522 1520 1516 1513 1510 1506 1502 1498 1494 1491 1487 1483 1479 1476 1472 1468 1465 1461 1458 1455 1452
1534 1533 1534 1532 1536 1532 1520 1520 1520 1526 1527 1529 1531 1533 1535 1536 1536 1536 1536 1536 1535 1534 1533 1532 1529 1527 1524 1522 1518 1515 1512 1508 1504 1500 1496 1492 1488 1484 1479 1475 1471 1467 1463 1459 1456 1451 1448 1445 1442
1535 1532 1536 1534 1532 1528 1518 1516 1512 1519 1522 1526 1529 1531 1533 1534 1534 1535 1534 1534 1533 1532 1531 1529 1526 1524 1521 1517 1514 1511 1507 1503 1499 1494 1490 1485 1481 1476 1471 1467 1463 1458 1454 1450 1446 1442 1438 1435 1431
1536 1536 1532 1530 1530 1527 1523 1512 1511 1513 1518 1522 1526 1528 1530 1531 1532 1532 1532 1531 1531 1529 1528 1525 1522 1519 1516 1513 1509 1505 1501 1497 1492 1488 1483 1478 1473 1468 1463 1458 1454 1449 1445 1441 1437 1432 1429 1425 1421
1528 1527 1528 1529 1527 1528 1522 1515 1515 1516 1519 1522 1524 1527 1528 1529 1530 1530 1530 1529 1528 1526 1524 1521 1518 1515 1512 1508 1504 1500 1495 1490 1486 1481 1476 1470 1465 1460 1455 1450 1445 1440 1436 1431 1427 1423 1419 1415 1411